Content
SEND FEEDBACK

Daily
Averages
Monthly
Summary
Mexico

CANCUN, QUINTANA ROO


Home > North America > Mexico > Quintana Roo
Elevation: 9 meters     Latitude: 21 09N     Longitude: 086 49W

WEATHER
 
SELECT A DAY
Number of Records: 163,677;   Date Range: 1/1/95 - 7/23/14
 
SHARE

PRINT THIS DATA

[ ← Previous Day ]
WEATHER ALMANAC - 20 FEBRUARY, 2013
[ Next Day → ]
[ °F ]   °C
Weather ElementAverageHighLow
Temperature25.5 °C28 °C (10:47 am)23 °C (1:43 am)
Dewpoint21 °C22 °C (2:41 am)20 °C (12:44 pm)
Humidity76.6 %94 % (3:44 am)62 % (12:44 pm)
Barometer1015.9 hPa1018.3 hPa (9:42 am)1014.2 hPa (3:43 pm)
Wind Speed13.5 km/h25.9 km/h (11:40 am)
Weather ElementAverage
Visibility10.9 km
Wind DirectionE (93 °)

Weather ElementTotal
Precipitation---
Cooling Degree Days7.2 (Base 18.3)
Growing Degree Days15.5 (Base 10)
Averaged from 23 records on 20 February, 2013
WEATHER CONDITIONS BREAKOUT
WIND DIRECTION BREAKOUT
WEATHER BY HOUR - 20 FEBRUARY, 2013
[ °F ]   °C
Local TimeTemperatureDewpointHumidityBarometerVisibilityWind DirectionWind SpeedGust SpeedPrecipitationEventsConditions
1:43 AM23 °C21 °C88 %1015.9 hPa9.7 kmEast (100°)5.6 km/hScattered Clouds
2:41 AM24 °C22 °C89 %1015.2 hPa9.7 kmENE (70°)7.4 km/hScattered Clouds
3:44 AM23 °C22 °C94 %1015.6 hPa9.7 kmNE (50°)5.6 km/hScattered Clouds
4:43 AM24 °C21 °C83 %1016.3 hPa9.7 kmENE (70°)11.1 km/hPartly Cloudy
5:43 AM23 °C21 °C88 %1016.3 hPa11.3 kmNE (40°)5.6 km/hScattered Clouds
6:49 AM24 °C21 °C83 %1016.6 hPa11.3 kmENE (70°)9.3 km/hScattered Clouds
7:41 AM26 °C21 °C74 %1017.3 hPa11.3 kmENE (70°)11.1 km/hScattered Clouds
8:49 AM26 °C21 °C74 %1017.9 hPa11.3 kmEast (90°)14.8 km/hMostly Cloudy
9:42 AM27 °C21 °C70 %1018.3 hPa11.3 kmEast (90°)14.8 km/hMostly Cloudy
10:47 AM28 °C21 °C66 %1017.6 hPa11.3 kmEast (80°)22.2 km/hMostly Cloudy
11:40 AM27 °C21 °C70 %1017.3 hPa11.3 kmESE (120°)25.9 km/hMostly Cloudy
12:44 PM28 °C20 °C62 %1016.3 hPa11.3 kmEast (90°)20.4 km/hScattered Clouds
1:42 PM27 °C20 °C65 %1015.2 hPa11.3 kmEast (100°)18.5 km/hScattered Clouds
2:41 PM28 °C21 °C66 %1014.9 hPa11.3 kmEast (100°)14.8 km/hScattered Clouds
3:43 PM27 °C21 °C70 %1014.2 hPa11.3 kmESE (110°)18.5 km/hScattered Clouds
4:47 PM26 °C21 °C74 %1014.6 hPa11.3 kmESE (110°)14.8 km/hClear
5:43 PM25 °C21 °C78 %1014.9 hPa11.3 kmESE (110°)14.8 km/hPartly Cloudy
6:43 PM25 °C21 °C78 %1014.9 hPa11.3 kmESE (110°)11.1 km/hClear
7:44 PM25 °C21 °C78 %1015.9 hPa11.3 kmESE (110°)9.3 km/hScattered Clouds
8:43 PM25 °C21 °C78 %1016.6 hPa11.3 kmESE (120°)9.3 km/hPartly Cloudy
9:48 PM25 °C21 °C78 %1015.9 hPa11.3 kmESE (110°)11.1 km/hPartly Cloudy
10:47 PM25 °C21 °C78 %1015.2 hPa11.3 kmESE (110°)16.7 km/hClear
11:47 PM25 °C21 °C78 %1014.9 hPa11.3 kmESE (110°)16.7 km/hClear
Hourly data recorded from MMUN, located 0 kilometers away from Cancun, Quintana Roo







STORIES FROM OUR PARTNERS